Time,TemperatureF,DewpointF,PressureIn,WindDirection,WindDirectionDegrees,WindSpeedMPH,WindSpeedGustMPH,Humidity,HourlyPrecipIn,Conditions,Clouds,dailyrainin,SoftwareType,DateUTC
2013-04-13 00:00:00,69.0,55.0,30.03,NNW,337,1.0,9.0,61,0.00,,,0.00,Weather View 32 v70,2013-04-13 04:00:00,
2013-04-13 00:05:00,69.0,55.4,30.03,NNW,337,0.0,9.0,62,0.00,,,0.00,Weather View 32 v70,2013-04-13 04:05:00,
2013-04-13 00:10:00,70.0,55.9,30.03,NNW,337,5.0,9.0,61,0.00,,,0.00,Weather View 32 v70,2013-04-13 04:10:00,
2013-04-13 00:15:00,69.0,55.0,30.03,NNW,337,2.0,9.0,61,0.00,,,0.00,Weather View 32 v70,2013-04-13 04:15:00,
2013-04-13 00:20:00,69.0,55.0,30.03,NNW,337,0.0,9.0,61,0.00,,,0.00,Weather View 32 v70,2013-04-13 04:20:00,
2013-04-13 00:30:00,69.0,54.5,30.03,NNW,337,0.0,6.0,60,0.00,,,0.00,Weather View 32 v70,2013-04-13 04:30:00,
2013-04-13 00:35:00,69.0,54.5,30.03,NNW,337,4.0,6.0,60,0.00,,,0.00,Weather View 32 v70,2013-04-13 04:35:00,
2013-04-13 00:40:00,69.0,54.5,30.03,North,360,1.0,6.0,60,0.00,,,0.00,Weather View 32 v70,2013-04-13 04:40:00,
2013-04-13 00:45:00,69.0,54.5,30.03,NNW,337,4.0,6.0,60,0.00,,,0.00,Weather View 32 v70,2013-04-13 04:45:00,
2013-04-13 00:50:00,69.0,54.5,30.03,NNW,337,2.0,6.0,60,0.00,,,0.00,Weather View 32 v70,2013-04-13 04:50:00,
2013-04-13 00:55:00,69.0,54.5,30.03,NNW,337,4.0,6.0,60,0.00,,,0.00,Weather View 32 v70,2013-04-13 04:55:00,
2013-04-13 01:00:00,69.0,54.5,30.01,NNW,337,6.0,6.0,60,0.00,,,0.00,Weather View 32 v70,2013-04-13 05:00:00,
2013-04-13 01:05:00,69.0,54.5,30.01,NNW,337,3.0,8.0,60,0.00,,,0.00,Weather View 32 v70,2013-04-13 05:05:00,
2013-04-13 01:10:00,69.0,54.5,30.01,NNW,337,4.0,8.0,60,0.00,,,0.00,Weather View 32 v70,2013-04-13 05:10:00,
2013-04-13 01:15:00,69.0,54.5,30.01,NNW,337,7.0,8.0,60,0.00,,,0.00,Weather View 32 v70,2013-04-13 05:15:00,
2013-04-13 01:20:00,69.0,54.5,30.01,NNW,337,7.0,9.0,60,0.00,,,0.00,Weather View 32 v70,2013-04-13 05:20:00,
2013-04-13 01:25:00,69.0,55.0,30.01,NNW,337,6.0,9.0,61,0.00,,,0.00,Weather View 32 v70,2013-04-13 05:25:00,
2013-04-13 01:30:00,70.0,55.9,30.01,NNW,337,7.0,9.0,61,0.00,,,0.00,Weather View 32 v70,2013-04-13 05:30:00,
2013-04-13 01:35:00,70.0,56.3,30.02,NNW,337,5.0,9.0,62,0.00,,,0.00,Weather View 32 v70,2013-04-13 05:35:00,
2013-04-13 01:40:00,70.0,56.8,30.03,NNW,337,6.0,9.0,63,0.00,,,0.00,Weather View 32 v70,2013-04-13 05:40:00,
2013-04-13 01:50:00,70.0,56.8,30.03,NNW,337,4.0,9.0,63,0.00,,,0.00,Weather View 32 v70,2013-04-13 05:50:00,
2013-04-13 01:55:00,70.0,56.8,30.03,NNW,337,2.0,9.0,63,0.00,,,0.00,Weather View 32 v70,2013-04-13 05:55:00,
2013-04-13 02:00:00,70.0,56.8,30.02,North,360,0.0,9.0,63,0.00,,,0.00,Weather View 32 v70,2013-04-13 06:00:00,
2013-04-13 02:05:00,69.0,55.8,30.02,NNW,337,0.0,9.0,63,0.00,,,0.00,Weather View 32 v70,2013-04-13 06:05:00,
2013-04-13 02:10:00,69.0,55.8,30.03,NNW,337,0.0,9.0,63,0.00,,,0.00,Weather View 32 v70,2013-04-13 06:10:00,
2013-04-13 02:15:00,69.0,55.8,30.02,NNW,337,0.0,9.0,63,0.00,,,0.00,Weather View 32 v70,2013-04-13 06:15:00,
2013-04-13 02:20:00,69.0,55.8,30.02,NNW,337,0.0,9.0,63,0.00,,,0.00,Weather View 32 v70,2013-04-13 06:20:00,
2013-04-13 02:25:00,69.0,55.8,30.01,NNW,337,0.0,9.0,63,0.00,,,0.00,Weather View 32 v70,2013-04-13 06:25:00,
2013-04-13 02:30:00,69.0,55.0,30.01,NNW,337,3.0,8.0,61,0.00,,,0.00,Weather View 32 v70,2013-04-13 06:30:00,
2013-04-13 02:45:00,69.0,54.0,30.01,NNW,337,0.0,6.0,59,0.00,,,0.00,Weather View 32 v70,2013-04-13 06:45:00,
2013-04-13 02:55:00,68.0,53.1,30.01,NNW,337,0.0,5.0,59,0.00,,,0.00,Weather View 32 v70,2013-04-13 06:55:00,
2013-04-13 03:05:00,69.0,53.6,30.01,NNW,337,0.0,5.0,58,0.00,,,0.00,Weather View 32 v70,2013-04-13 07:05:00,
2013-04-13 03:20:00,69.0,54.0,30.01,NNW,337,0.0,5.0,59,0.00,,,0.00,Weather View 32 v70,2013-04-13 07:20:00,
2013-04-13 03:30:00,69.0,54.0,30.01,NNW,337,0.0,5.0,59,0.00,,,0.00,Weather View 32 v70,2013-04-13 07:30:00,
2013-04-13 03:40:00,69.0,54.5,30.01,NNW,337,0.0,3.0,60,0.00,,,0.00,Weather View 32 v70,2013-04-13 07:40:00,
2013-04-13 03:46:00,69.0,54.5,30.01,WSW,247,0.0,3.0,60,0.00,,,0.00,Weather View 32 v70,2013-04-13 07:46:00,
2013-04-13 03:55:00,69.0,54.5,30.00,WSW,247,0.0,3.0,60,0.00,,,0.00,Weather View 32 v70,2013-04-13 07:55:00,
2013-04-13 04:00:00,68.0,54.0,30.00,WSW,247,0.0,3.0,61,0.00,,,0.00,Weather View 32 v70,2013-04-13 08:00:00,
2013-04-13 04:10:00,68.0,53.6,30.00,WSW,247,0.0,3.0,60,0.00,,,0.00,Weather View 32 v70,2013-04-13 08:10:00,
2013-04-13 04:20:00,68.0,54.0,30.01,WSW,247,0.0,3.0,61,0.00,,,0.00,Weather View 32 v70,2013-04-13 08:20:00,
2013-04-13 04:30:00,69.0,55.8,30.00,NNW,337,2.0,4.0,63,0.00,,,0.00,Weather View 32 v70,2013-04-13 08:30:00,
2013-04-13 04:35:00,69.0,55.8,30.01,NNW,337,1.0,4.0,63,0.00,,,0.00,Weather View 32 v70,2013-04-13 08:35:00,
2013-04-13 04:40:00,69.0,56.3,30.01,NNW,337,1.0,5.0,64,0.00,,,0.00,Weather View 32 v70,2013-04-13 08:40:00,
2013-04-13 04:46:00,69.0,56.3,30.01,NNW,337,0.0,5.0,64,0.00,,,0.00,Weather View 32 v70,2013-04-13 08:46:00,
2013-04-13 04:55:00,69.0,56.3,30.01,NNW,337,0.0,5.0,64,0.00,,,0.00,Weather View 32 v70,2013-04-13 08:55:00,
2013-04-13 05:00:00,69.0,56.3,30.01,NNW,337,0.0,5.0,64,0.00,,,0.00,Weather View 32 v70,2013-04-13 09:00:00,
2013-04-13 05:05:00,69.0,55.8,30.01,WSW,247,0.0,5.0,63,0.00,,,0.00,Weather View 32 v70,2013-04-13 09:05:00,
2013-04-13 05:10:00,69.0,55.8,30.01,South,180,0.0,5.0,63,0.00,,,0.00,Weather View 32 v70,2013-04-13 09:10:00,
2013-04-13 05:20:00,68.0,55.3,30.01,South,180,0.0,5.0,64,0.00,,,0.00,Weather View 32 v70,2013-04-13 09:20:00,
2013-04-13 05:25:00,68.0,55.3,30.01,South,180,0.0,5.0,64,0.00,,,0.00,Weather View 32 v70,2013-04-13 09:25:00,
2013-04-13 05:30:00,68.0,55.3,30.01,South,180,0.0,5.0,64,0.00,,,0.00,Weather View 32 v70,2013-04-13 09:30:00,
2013-04-13 05:35:00,67.0,54.0,30.01,South,180,0.0,5.0,63,0.00,,,0.00,Weather View 32 v70,2013-04-13 09:35:00,
2013-04-13 05:45:00,67.0,54.0,30.01,South,180,0.0,4.0,63,0.00,,,0.00,Weather View 32 v70,2013-04-13 09:45:00,
2013-04-13 05:55:00,68.0,54.9,30.00,South,180,0.0,0.0,63,0.00,,,0.00,Weather View 32 v70,2013-04-13 09:55:00,
2013-04-13 06:00:00,68.0,54.5,30.00,South,180,0.0,0.0,62,0.00,,,0.00,Weather View 32 v70,2013-04-13 10:00:00,
2013-04-13 06:05:00,67.0,53.5,30.00,South,180,0.0,0.0,62,0.00,,,0.00,Weather View 32 v70,2013-04-13 10:05:00,
2013-04-13 06:10:00,68.0,54.0,30.00,South,180,0.0,0.0,61,0.00,,,0.00,Weather View 32 v70,2013-04-13 10:10:00,
2013-04-13 06:15:00,68.0,53.1,30.00,South,180,1.0,2.0,59,0.00,,,0.00,Weather View 32 v70,2013-04-13 10:15:00,
2013-04-13 06:25:00,67.0,51.2,30.00,South,180,0.0,2.0,57,0.00,,,0.00,Weather View 32 v70,2013-04-13 10:25:00,
2013-04-13 06:30:00,67.0,51.7,30.00,South,180,0.0,2.0,58,0.00,,,0.00,Weather View 32 v70,2013-04-13 10:30:00,
2013-04-13 06:40:00,67.0,50.3,30.00,NNW,337,0.0,2.0,55,0.00,,,0.00,Weather View 32 v70,2013-04-13 10:40:00,
2013-04-13 06:45:00,67.0,50.3,30.01,WSW,247,0.0,3.0,55,0.00,,,0.00,Weather View 32 v70,2013-04-13 10:45:00,
2013-04-13 06:50:00,67.0,50.3,30.01,WSW,247,4.0,6.0,55,0.00,,,0.00,Weather View 32 v70,2013-04-13 10:50:00,
2013-04-13 07:00:00,68.0,52.2,30.02,WSW,247,0.0,7.0,57,0.00,,,0.00,Weather View 32 v70,2013-04-13 11:00:00,
2013-04-13 07:10:00,68.0,52.6,30.03,NNW,337,2.0,7.0,58,0.00,,,0.00,Weather View 32 v70,2013-04-13 11:10:00,
2013-04-13 07:15:00,68.0,52.6,30.03,NNW,337,0.0,7.0,58,0.00,,,0.00,Weather View 32 v70,2013-04-13 11:15:00,
2013-04-13 07:25:00,68.0,52.6,30.03,WSW,247,1.0,7.0,58,0.00,,,0.00,Weather View 32 v70,2013-04-13 11:25:00,
2013-04-13 07:30:00,68.0,52.2,30.04,NNW,337,2.0,7.0,57,0.00,,,0.00,Weather View 32 v70,2013-04-13 11:30:00,
2013-04-13 07:35:00,68.0,52.2,30.04,NNW,337,1.0,7.0,57,0.00,,,0.00,Weather View 32 v70,2013-04-13 11:35:00,
2013-04-13 07:45:00,68.0,51.7,30.05,NNW,337,6.0,7.0,56,0.00,,,0.00,Weather View 32 v70,2013-04-13 11:45:00,
2013-04-13 07:55:00,68.0,51.7,30.05,NNW,337,0.0,7.0,56,0.00,,,0.00,Weather View 32 v70,2013-04-13 11:55:00,
2013-04-13 08:00:00,68.0,51.7,30.05,NNW,337,3.0,10.0,56,0.00,,,0.00,Weather View 32 v70,2013-04-13 12:00:00,
2013-04-13 08:05:00,68.0,51.7,30.06,NNW,337,7.0,10.0,56,0.00,,,0.00,Weather View 32 v70,2013-04-13 12:05:00,
2013-04-13 08:10:00,69.0,52.6,30.06,NNW,337,3.0,10.0,56,0.00,,,0.00,Weather View 32 v70,2013-04-13 12:10:00,
2013-04-13 08:20:00,69.0,53.6,30.07,NNW,337,3.0,10.0,58,0.00,,,0.00,Weather View 32 v70,2013-04-13 12:20:00,
2013-04-13 08:30:00,69.0,54.5,30.08,NNW,337,6.0,10.0,60,0.00,,,0.00,Weather View 32 v70,2013-04-13 12:30:00,
2013-04-13 08:40:00,69.0,54.5,30.08,NNW,337,5.0,10.0,60,0.00,,,0.00,Weather View 32 v70,2013-04-13 12:40:00,
2013-04-13 08:45:00,69.0,54.5,30.08,NNW,337,7.0,12.0,60,0.00,,,0.00,Weather View 32 v70,2013-04-13 12:45:00,
2013-04-13 08:55:00,69.0,55.8,30.09,WSW,247,6.0,12.0,63,0.00,,,0.00,Weather View 32 v70,2013-04-13 12:55:00,
2013-04-13 09:00:00,69.0,55.8,30.09,NNW,337,9.0,12.0,63,0.00,,,0.00,Weather View 32 v70,2013-04-13 13:00:00,
2013-04-13 09:10:00,70.0,57.7,30.09,NNW,337,9.0,12.0,65,0.00,,,0.00,Weather View 32 v70,2013-04-13 13:10:00,
2013-04-13 09:30:00,72.0,61.6,30.11,NNW,337,4.0,12.0,70,0.00,,,0.00,Weather View 32 v70,2013-04-13 13:30:00,
2013-04-13 09:35:00,73.0,63.4,30.12,NNW,337,2.0,12.0,72,0.00,,,0.00,Weather View 32 v70,2013-04-13 13:35:00,
2013-04-13 09:40:00,72.0,62.8,30.12,NNW,337,7.0,12.0,73,0.00,,,0.00,Weather View 32 v70,2013-04-13 13:40:00,
2013-04-13 09:49:00,72.0,62.8,30.12,NNW,337,7.0,12.0,73,0.00,,,0.00,Weather View 32 v70,2013-04-13 13:49:00,
2013-04-13 10:00:00,74.0,66.3,30.13,NNW,337,0.0,11.0,77,0.00,,,0.00,Weather View 32 v70,2013-04-13 14:00:00,
2013-04-13 10:05:00,73.0,65.0,30.13,NNW,337,4.0,10.0,76,0.00,,,0.00,Weather View 32 v70,2013-04-13 14:05:00,
2013-04-13 10:10:00,75.0,67.3,30.14,NNW,337,3.0,10.0,77,0.00,,,0.00,Weather View 32 v70,2013-04-13 14:10:00,
2013-04-13 10:15:00,75.0,67.6,30.14,WSW,247,0.0,10.0,78,0.00,,,0.00,Weather View 32 v70,2013-04-13 14:15:00,
2013-04-13 10:20:00,77.0,70.7,30.14,North,360,3.0,10.0,81,0.00,,,0.00,Weather View 32 v70,2013-04-13 14:20:00,
2013-04-13 10:25:00,76.0,69.7,30.15,NNW,337,5.0,10.0,81,0.00,,,0.00,Weather View 32 v70,2013-04-13 14:25:00,
2013-04-13 10:30:00,76.0,69.7,30.15,WSW,247,0.0,10.0,81,0.00,,,0.00,Weather View 32 v70,2013-04-13 14:30:00,
2013-04-13 10:40:00,76.0,69.7,30.15,NNW,337,4.0,10.0,81,0.00,,,0.00,Weather View 32 v70,2013-04-13 14:40:00,
2013-04-13 10:45:00,77.0,71.1,30.15,NNW,337,5.0,10.0,82,0.00,,,0.00,Weather View 32 v70,2013-04-13 14:45:00,
2013-04-13 10:50:00,77.0,71.1,30.15,North,360,5.0,10.0,82,0.00,,,0.00,Weather View 32 v70,2013-04-13 14:50:00,
2013-04-13 11:00:00,78.0,72.4,30.15,NNW,337,4.0,10.0,83,0.00,,,0.00,Weather View 32 v70,2013-04-13 15:00:00,
2013-04-13 11:05:00,80.0,74.3,30.16,North,360,5.0,9.0,83,0.00,,,0.00,Weather View 32 v70,2013-04-13 15:05:00,
2013-04-13 11:15:00,79.0,73.7,30.16,WSW,247,1.0,9.0,84,0.00,,,0.00,Weather View 32 v70,2013-04-13 15:15:00,
2013-04-13 11:20:00,79.0,73.7,30.16,North,360,2.0,9.0,84,0.00,,,0.00,Weather View 32 v70,2013-04-13 15:20:00,
2013-04-13 11:30:00,81.0,76.0,30.17,NNW,337,2.0,9.0,85,0.00,,,0.00,Weather View 32 v70,2013-04-13 15:30:00,
2013-04-13 11:35:00,82.0,77.0,30.17,NNW,337,0.0,9.0,85,0.00,,,0.00,Weather View 32 v70,2013-04-13 15:35:00,
2013-04-13 11:40:00,82.0,77.0,30.17,NNW,337,6.0,9.0,85,0.00,,,0.00,Weather View 32 v70,2013-04-13 15:40:00,
2013-04-13 11:45:00,81.0,76.0,30.17,SSE,157,1.0,9.0,85,0.00,,,0.00,Weather View 32 v70,2013-04-13 15:45:00,
2013-04-13 11:50:00,79.0,74.1,30.17,NNW,337,7.0,9.0,85,0.00,,,0.00,Weather View 32 v70,2013-04-13 15:50:00,
2013-04-13 12:05:00,78.0,72.7,30.17,NNW,337,0.0,11.0,84,0.00,,,0.00,Weather View 32 v70,2013-04-13 16:05:00,
2013-04-13 12:15:00,78.0,72.7,30.17,NNW,337,3.0,12.0,84,0.00,,,0.00,Weather View 32 v70,2013-04-13 16:15:00,
2013-04-13 12:20:00,77.0,71.8,30.16,NNW,337,9.0,12.0,84,0.00,,,0.00,Weather View 32 v70,2013-04-13 16:20:00,
2013-04-13 12:25:00,78.0,72.7,30.16,South,180,2.0,12.0,84,0.00,,,0.00,Weather View 32 v70,2013-04-13 16:25:00,
2013-04-13 12:35:00,79.0,73.7,30.16,NNW,337,1.0,12.0,84,0.00,,,0.00,Weather View 32 v70,2013-04-13 16:35:00,
2013-04-13 12:40:00,81.0,76.0,30.16,NNW,337,0.0,12.0,85,0.00,,,0.00,Weather View 32 v70,2013-04-13 16:40:00,
2013-04-13 12:45:00,81.0,76.0,30.17,WSW,247,7.0,12.0,85,0.00,,,0.00,Weather View 32 v70,2013-04-13 16:45:00,
2013-04-13 12:50:00,81.0,76.0,30.17,North,360,0.0,12.0,85,0.00,,,0.00,Weather View 32 v70,2013-04-13 16:50:00,
2013-04-13 12:55:00,81.0,76.0,30.17,NNW,337,1.0,12.0,85,0.00,,,0.00,Weather View 32 v70,2013-04-13 16:55:00,
2013-04-13 13:00:00,82.0,77.0,30.16,North,360,4.0,12.0,85,0.00,,,0.00,Weather View 32 v70,2013-04-13 17:00:00,
2013-04-13 13:05:00,82.0,77.0,30.16,North,360,1.0,12.0,85,0.00,,,0.00,Weather View 32 v70,2013-04-13 17:05:00,
2013-04-13 13:10:00,82.0,77.0,30.16,NNW,337,4.0,12.0,85,0.00,,,0.00,Weather View 32 v70,2013-04-13 17:10:00,
2013-04-13 13:15:00,84.0,79.3,30.16,NNW,337,0.0,12.0,86,0.00,,,0.00,Weather View 32 v70,2013-04-13 17:15:00,
2013-04-13 13:25:00,84.0,79.3,30.16,WSW,247,0.0,9.0,86,0.00,,,0.00,Weather View 32 v70,2013-04-13 17:25:00,
2013-04-13 13:35:00,84.0,79.3,30.16,NNW,337,2.0,7.0,86,0.00,,,0.00,Weather View 32 v70,2013-04-13 17:35:00,
2013-04-13 13:40:00,82.0,77.0,30.15,East,90,6.0,7.0,85,0.00,,,0.00,Weather View 32 v70,2013-04-13 17:40:00,
2013-04-13 13:50:00,82.0,77.0,30.15,SSE,157,4.0,8.0,85,0.00,,,0.00,Weather View 32 v70,2013-04-13 17:50:00,
2013-04-13 13:55:00,83.0,78.0,30.14,South,180,2.0,8.0,85,0.00,,,0.00,Weather View 32 v70,2013-04-13 17:55:00,
2013-04-13 14:05:00,80.0,75.1,30.14,NNW,337,2.0,11.0,85,0.00,,,0.00,Weather View 32 v70,2013-04-13 18:05:00,
2013-04-13 14:15:00,82.0,77.0,30.13,NNW,337,9.0,12.0,85,0.00,,,0.00,Weather View 32 v70,2013-04-13 18:15:00,
2013-04-13 14:20:00,79.0,74.1,30.13,NNW,337,12.0,13.0,85,0.00,,,0.00,Weather View 32 v70,2013-04-13 18:20:00,
2013-04-13 14:25:00,80.0,75.1,30.13,NNW,337,9.0,13.0,85,0.00,,,0.00,Weather View 32 v70,2013-04-13 18:25:00,
2013-04-13 14:30:00,80.0,75.1,30.12,NNW,337,8.0,13.0,85,0.00,,,0.00,Weather View 32 v70,2013-04-13 18:30:00,
2013-04-13 14:35:00,80.0,75.1,30.12,NNW,337,9.0,13.0,85,0.00,,,0.00,Weather View 32 v70,2013-04-13 18:35:00,
2013-04-13 14:40:00,81.0,76.0,30.12,NNW,337,4.0,13.0,85,0.00,,,0.00,Weather View 32 v70,2013-04-13 18:40:00,
2013-04-13 14:45:00,81.0,76.0,30.11,NNW,337,7.0,13.0,85,0.00,,,0.00,Weather View 32 v70,2013-04-13 18:45:00,
2013-04-13 14:50:00,81.0,76.0,30.11,WSW,247,8.0,13.0,85,0.00,,,0.00,Weather View 32 v70,2013-04-13 18:50:00,
2013-04-13 14:55:00,81.0,76.0,30.11,WSW,247,8.0,13.0,85,0.00,,,0.00,Weather View 32 v70,2013-04-13 18:55:00,
2013-04-13 15:05:00,80.0,75.1,30.11,NNW,337,7.0,13.0,85,0.00,,,0.00,Weather View 32 v70,2013-04-13 19:05:00,
2013-04-13 15:10:00,80.0,75.1,30.11,NNW,337,7.0,13.0,85,0.00,,,0.00,Weather View 32 v70,2013-04-13 19:10:00,
2013-04-13 15:15:00,81.0,76.0,30.11,North,360,7.0,13.0,85,0.00,,,0.00,Weather View 32 v70,2013-04-13 19:15:00,
2013-04-13 15:20:00,80.0,75.1,30.11,WSW,247,7.0,13.0,85,0.00,,,0.00,Weather View 32 v70,2013-04-13 19:20:00,
2013-04-13 15:25:00,80.0,75.1,30.11,WSW,247,4.0,13.0,85,0.00,,,0.00,Weather View 32 v70,2013-04-13 19:25:00,
2013-04-13 15:30:00,80.0,75.1,30.11,NNW,337,5.0,13.0,85,0.00,,,0.00,Weather View 32 v70,2013-04-13 19:30:00,
2013-04-13 15:35:00,81.0,76.0,30.10,WSW,247,7.0,13.0,85,0.00,,,0.00,Weather View 32 v70,2013-04-13 19:35:00,
2013-04-13 15:40:00,79.0,74.1,30.10,NNW,337,8.0,13.0,85,0.00,,,0.00,Weather View 32 v70,2013-04-13 19:40:00,
2013-04-13 15:45:00,78.0,73.1,30.10,South,180,3.0,13.0,85,0.00,,,0.00,Weather View 32 v70,2013-04-13 19:45:00,
2013-04-13 15:50:00,79.0,74.1,30.09,NNW,337,11.0,14.0,85,0.00,,,0.00,Weather View 32 v70,2013-04-13 19:50:00,
2013-04-13 15:55:00,80.0,75.1,30.09,WSW,247,5.0,14.0,85,0.00,,,0.00,Weather View 32 v70,2013-04-13 19:55:00,
2013-04-13 16:00:00,79.0,74.1,30.09,NNW,337,10.0,14.0,85,0.00,,,0.00,Weather View 32 v70,2013-04-13 20:00:00,
2013-04-13 16:10:00,79.0,74.1,30.09,NNW,337,7.0,14.0,85,0.00,,,0.00,Weather View 32 v70,2013-04-13 20:10:00,
2013-04-13 16:20:00,78.0,73.1,30.09,NNW,337,10.0,14.0,85,0.00,,,0.00,Weather View 32 v70,2013-04-13 20:20:00,
2013-04-13 16:25:00,79.0,74.1,30.09,North,360,1.0,14.0,85,0.00,,,0.00,Weather View 32 v70,2013-04-13 20:25:00,
2013-04-13 16:30:00,79.0,74.1,30.09,NNW,337,9.0,14.0,85,0.00,,,0.00,Weather View 32 v70,2013-04-13 20:30:00,
2013-04-13 16:35:00,78.0,73.1,30.09,WSW,247,7.0,14.0,85,0.00,,,0.00,Weather View 32 v70,2013-04-13 20:35:00,
2013-04-13 16:40:00,79.0,74.1,30.09,NNW,337,5.0,14.0,85,0.00,,,0.00,Weather View 32 v70,2013-04-13 20:40:00,
2013-04-13 16:45:00,78.0,73.1,30.09,NNW,337,2.0,14.0,85,0.00,,,0.00,Weather View 32 v70,2013-04-13 20:45:00,
2013-04-13 16:50:00,78.0,73.1,30.09,WSW,247,13.0,15.0,85,0.00,,,0.00,Weather View 32 v70,2013-04-13 20:50:00,
2013-04-13 16:55:00,77.0,72.1,30.09,WSW,247,12.0,15.0,85,0.00,,,0.00,Weather View 32 v70,2013-04-13 20:55:00,
2013-04-13 17:00:00,77.0,72.1,30.09,WSW,247,10.0,15.0,85,0.00,,,0.00,Weather View 32 v70,2013-04-13 21:00:00,
2013-04-13 17:05:00,77.0,72.1,30.09,WSW,247,9.0,15.0,85,0.00,,,0.00,Weather View 32 v70,2013-04-13 21:05:00,
2013-04-13 17:10:00,76.0,71.1,30.09,WSW,247,0.0,15.0,85,0.00,,,0.00,Weather View 32 v70,2013-04-13 21:10:00,
2013-04-13 17:15:00,76.0,71.1,30.09,NNW,337,13.0,16.0,85,0.00,,,0.00,Weather View 32 v70,2013-04-13 21:15:00,
2013-04-13 17:20:00,76.0,71.1,30.09,NNW,337,6.0,16.0,85,0.00,,,0.00,Weather View 32 v70,2013-04-13 21:20:00,
2013-04-13 17:25:00,76.0,71.1,30.09,East,90,4.0,16.0,85,0.00,,,0.00,Weather View 32 v70,2013-04-13 21:25:00,
2013-04-13 17:30:00,76.0,71.1,30.09,NNW,337,8.0,16.0,85,0.00,,,0.00,Weather View 32 v70,2013-04-13 21:30:00,
2013-04-13 17:40:00,76.0,71.1,30.09,NNW,337,1.0,16.0,85,0.00,,,0.00,Weather View 32 v70,2013-04-13 21:40:00,
2013-04-13 17:45:00,76.0,71.1,30.09,NNW,337,0.0,16.0,85,0.00,,,0.00,Weather View 32 v70,2013-04-13 21:45:00,
2013-04-13 17:50:00,77.0,72.1,30.09,NNW,337,7.0,16.0,85,0.00,,,0.00,Weather View 32 v70,2013-04-13 21:50:00,
2013-04-13 17:55:00,76.0,71.1,30.09,WSW,247,6.0,16.0,85,0.00,,,0.00,Weather View 32 v70,2013-04-13 21:55:00,
2013-04-13 18:00:00,75.0,69.8,30.09,NNW,337,9.0,16.0,84,0.00,,,0.00,Weather View 32 v70,2013-04-13 22:00:00,
2013-04-13 18:05:00,76.0,71.1,30.09,WSW,247,0.0,16.0,85,0.00,,,0.00,Weather View 32 v70,2013-04-13 22:05:00,
2013-04-13 18:10:00,75.0,69.8,30.09,WSW,247,3.0,16.0,84,0.00,,,0.00,Weather View 32 v70,2013-04-13 22:10:00,
2013-04-13 18:15:00,75.0,69.8,30.08,NNW,337,13.0,16.0,84,0.00,,,0.00,Weather View 32 v70,2013-04-13 22:15:00,
2013-04-13 18:20:00,74.0,68.5,30.08,NNW,337,12.0,14.0,83,0.00,,,0.00,Weather View 32 v70,2013-04-13 22:20:00,
2013-04-13 18:30:00,74.0,68.5,30.08,NNW,337,1.0,16.0,83,0.00,,,0.00,Weather View 32 v70,2013-04-13 22:30:00,
2013-04-13 18:35:00,75.0,69.5,30.08,NNW,337,6.0,16.0,83,0.00,,,0.00,Weather View 32 v70,2013-04-13 22:35:00,
2013-04-13 18:40:00,74.0,68.8,30.08,NNW,337,9.0,16.0,84,0.00,,,0.00,Weather View 32 v70,2013-04-13 22:40:00,
2013-04-13 18:50:00,74.0,68.5,30.07,WSW,247,8.0,16.0,83,0.00,,,0.00,Weather View 32 v70,2013-04-13 22:50:00,
2013-04-13 18:55:00,74.0,68.5,30.08,NNW,337,5.0,16.0,83,0.00,,,0.00,Weather View 32 v70,2013-04-13 22:55:00,
2013-04-13 19:00:00,73.0,67.5,30.07,NNW,337,12.0,16.0,83,0.00,,,0.00,Weather View 32 v70,2013-04-13 23:00:00,
2013-04-13 19:05:00,73.0,67.5,30.07,WSW,247,3.0,16.0,83,0.00,,,0.00,Weather View 32 v70,2013-04-13 23:05:00,
2013-04-13 19:10:00,73.0,67.5,30.07,NNW,337,6.0,16.0,83,0.00,,,0.00,Weather View 32 v70,2013-04-13 23:10:00,
2013-04-13 19:15:00,73.0,67.5,30.07,NNW,337,6.0,16.0,83,0.00,,,0.00,Weather View 32 v70,2013-04-13 23:15:00,
2013-04-13 19:20:00,72.0,66.5,30.07,NNW,337,8.0,16.0,83,0.00,,,0.00,Weather View 32 v70,2013-04-13 23:20:00,
2013-04-13 19:25:00,72.0,66.5,30.06,NNW,337,3.0,16.0,83,0.00,,,0.00,Weather View 32 v70,2013-04-13 23:25:00,
2013-04-13 19:30:00,72.0,66.5,30.06,WSW,247,6.0,15.0,83,0.00,,,0.00,Weather View 32 v70,2013-04-13 23:30:00,
2013-04-13 19:35:00,72.0,66.5,30.06,NNW,337,9.0,15.0,83,0.00,,,0.00,Weather View 32 v70,2013-04-13 23:35:00,
2013-04-13 19:40:00,72.0,66.5,30.05,NNW,337,8.0,15.0,83,0.00,,,0.00,Weather View 32 v70,2013-04-13 23:40:00,
2013-04-13 19:45:00,72.0,66.5,30.05,NNW,337,12.0,15.0,83,0.00,,,0.00,Weather View 32 v70,2013-04-13 23:45:00,
2013-04-13 19:50:00,72.0,66.5,30.05,NNW,337,8.0,15.0,83,0.00,,,0.00,Weather View 32 v70,2013-04-13 23:50:00,
2013-04-13 19:55:00,72.0,66.2,30.05,NNW,337,6.0,15.0,82,0.00,,,0.00,Weather View 32 v70,2013-04-13 23:55:00,
2013-04-13 20:05:00,72.0,66.2,30.05,NNW,337,6.0,13.0,82,0.00,,,0.00,Weather View 32 v70,2013-04-14 00:05:00,
2013-04-13 20:15:00,72.0,66.2,30.05,NNW,337,6.0,13.0,82,0.00,,,0.00,Weather View 32 v70,2013-04-14 00:15:00,
2013-04-13 20:20:00,71.0,65.2,30.05,North,360,0.0,13.0,82,0.00,,,0.00,Weather View 32 v70,2013-04-14 00:20:00,
2013-04-13 20:30:00,71.0,65.2,30.05,NNW,337,8.0,13.0,82,0.00,,,0.00,Weather View 32 v70,2013-04-14 00:30:00,
2013-04-13 20:35:00,71.0,65.2,30.05,NNW,337,3.0,13.0,82,0.00,,,0.00,Weather View 32 v70,2013-04-14 00:35:00,
2013-04-13 20:40:00,71.0,65.2,30.04,NNW,337,1.0,13.0,82,0.00,,,0.00,Weather View 32 v70,2013-04-14 00:40:00,
2013-04-13 20:45:00,71.0,65.2,30.04,North,360,1.0,13.0,82,0.00,,,0.00,Weather View 32 v70,2013-04-14 00:45:00,
2013-04-13 20:50:00,71.0,65.2,30.04,NNW,337,5.0,13.0,82,0.00,,,0.00,Weather View 32 v70,2013-04-14 00:50:00,
2013-04-13 20:55:00,71.0,64.9,30.04,North,360,3.0,12.0,81,0.00,,,0.00,Weather View 32 v70,2013-04-14 00:55:00,
2013-04-13 21:00:00,71.0,64.9,30.04,NNW,337,0.0,12.0,81,0.00,,,0.00,Weather View 32 v70,2013-04-14 01:00:00,
2013-04-13 21:10:00,70.0,63.5,30.05,NNW,337,1.0,10.0,80,0.00,,,0.00,Weather View 32 v70,2013-04-14 01:10:00,
2013-04-13 21:15:00,71.0,64.5,30.05,NNW,337,7.0,9.0,80,0.00,,,0.00,Weather View 32 v70,2013-04-14 01:15:00,
2013-04-13 21:20:00,71.0,64.1,30.06,NNW,337,4.0,9.0,79,0.00,,,0.00,Weather View 32 v70,2013-04-14 01:20:00,
2013-04-13 21:30:00,71.0,64.1,30.07,NNW,337,3.0,9.0,79,0.00,,,0.00,Weather View 32 v70,2013-04-14 01:30:00,
2013-04-13 21:35:00,71.0,63.8,30.07,NNW,337,1.0,9.0,78,0.00,,,0.00,Weather View 32 v70,2013-04-14 01:35:00,
2013-04-13 21:40:00,70.0,62.8,30.07,NNW,337,0.0,8.0,78,0.00,,,0.00,Weather View 32 v70,2013-04-14 01:40:00,
2013-04-13 21:45:00,70.0,62.8,30.07,NNW,337,2.0,8.0,78,0.00,,,0.00,Weather View 32 v70,2013-04-14 01:45:00,
2013-04-13 21:50:00,70.0,62.8,30.07,NNW,337,0.0,8.0,78,0.00,,,0.00,Weather View 32 v70,2013-04-14 01:50:00,
2013-04-13 21:55:00,70.0,62.8,30.07,NNW,337,2.0,8.0,78,0.00,,,0.00,Weather View 32 v70,2013-04-14 01:55:00,
2013-04-13 22:05:00,70.0,62.4,30.08,North,360,3.0,8.0,77,0.00,,,0.00,Weather View 32 v70,2013-04-14 02:05:00,
2013-04-13 22:10:00,70.0,62.4,30.08,North,360,1.0,8.0,77,0.00,,,0.00,Weather View 32 v70,2013-04-14 02:10:00,
2013-04-13 22:15:00,69.0,61.1,30.08,North,360,0.0,8.0,76,0.00,,,0.00,Weather View 32 v70,2013-04-14 02:15:00,
2013-04-13 22:20:00,69.0,60.7,30.08,North,360,2.0,7.0,75,0.00,,,0.00,Weather View 32 v70,2013-04-14 02:20:00,
2013-04-13 22:25:00,69.0,60.7,30.09,North,360,1.0,6.0,75,0.00,,,0.00,Weather View 32 v70,2013-04-14 02:25:00,
2013-04-13 22:30:00,69.0,60.7,30.09,North,360,3.0,8.0,75,0.00,,,0.00,Weather View 32 v70,2013-04-14 02:30:00,
2013-04-13 22:35:00,69.0,60.7,30.08,NNW,337,3.0,8.0,75,0.00,,,0.00,Weather View 32 v70,2013-04-14 02:35:00,
2013-04-13 22:40:00,69.0,60.7,30.09,North,360,1.0,8.0,75,0.00,,,0.00,Weather View 32 v70,2013-04-14 02:40:00,
2013-04-13 22:45:00,69.0,60.7,30.09,North,360,5.0,8.0,75,0.00,,,0.00,Weather View 32 v70,2013-04-14 02:45:00,
2013-04-13 22:50:00,69.0,60.7,30.09,North,360,2.0,8.0,75,0.00,,,0.00,Weather View 32 v70,2013-04-14 02:50:00,
2013-04-13 22:55:00,69.0,60.7,30.08,North,360,0.0,8.0,75,0.00,,,0.00,Weather View 32 v70,2013-04-14 02:55:00,
2013-04-13 23:05:00,68.0,59.4,30.09,North,360,1.0,8.0,74,0.00,,,0.00,Weather View 32 v70,2013-04-14 03:05:00,
2013-04-13 23:10:00,68.0,59.4,30.09,ENE,67,3.0,8.0,74,0.00,,,0.00,Weather View 32 v70,2013-04-14 03:10:00,
2013-04-13 23:15:00,68.0,59.0,30.08,North,360,1.0,8.0,73,0.00,,,0.00,Weather View 32 v70,2013-04-14 03:15:00,
2013-04-13 23:20:00,68.0,59.0,30.08,North,360,0.0,8.0,73,0.00,,,0.00,Weather View 32 v70,2013-04-14 03:20:00,
2013-04-13 23:25:00,68.0,59.0,30.08,North,360,0.0,8.0,73,0.00,,,0.00,Weather View 32 v70,2013-04-14 03:25:00,
2013-04-13 23:35:00,68.0,59.0,30.08,NNW,337,3.0,7.0,73,0.00,,,0.00,Weather View 32 v70,2013-04-14 03:35:00,
2013-04-13 23:40:00,68.0,58.6,30.08,North,360,2.0,6.0,72,0.00,,,0.00,Weather View 32 v70,2013-04-14 03:40:00,
2013-04-13 23:45:00,68.0,58.6,30.08,North,360,5.0,6.0,72,0.00,,,0.00,Weather View 32 v70,2013-04-14 03:45:00,
2013-04-13 23:50:00,68.0,59.0,30.08,ENE,67,3.0,6.0,73,0.00,,,0.00,Weather View 32 v70,2013-04-14 03:50:00,
2013-04-13 23:55:00,68.0,59.0,30.08,North,360,2.0,6.0,73,0.00,,,0.00,Weather View 32 v70,2013-04-14 03:55:00,